Year,Month,Day,Hour,Minute,Value (Times are PST for temperature in C)
2012,07,07,00,00,15.60
2012,07,07,00,01,15.60
2012,07,07,00,02,15.60
2012,07,07,00,03,15.60
2012,07,07,00,04,15.60
2012,07,07,00,05,15.60
2012,07,07,00,06,15.60
2012,07,07,00,07,15.60
2012,07,07,00,08,15.50
2012,07,07,00,09,15.50
2012,07,07,00,10,15.50
2012,07,07,00,11,15.40
2012,07,07,00,12,15.40
2012,07,07,00,13,15.40
2012,07,07,00,14,15.40
2012,07,07,00,15,15.30
2012,07,07,00,16,15.30
2012,07,07,00,17,15.30
2012,07,07,00,18,15.30
2012,07,07,00,19,15.20
2012,07,07,00,20,15.20
2012,07,07,00,21,15.20
2012,07,07,00,22,15.10
2012,07,07,00,23,15.10
2012,07,07,00,24,15.00
2012,07,07,00,25,15.00
2012,07,07,00,26,15.00
2012,07,07,00,27,15.00
2012,07,07,00,28,15.00
2012,07,07,00,29,15.00
2012,07,07,00,30,15.00
2012,07,07,00,31,15.00
2012,07,07,00,32,15.00
2012,07,07,00,33,15.00
2012,07,07,00,34,15.00
2012,07,07,00,35,15.00
2012,07,07,00,36,15.00
2012,07,07,00,37,15.00
2012,07,07,00,38,15.00
2012,07,07,00,39,15.00
2012,07,07,00,40,15.00
2012,07,07,00,41,15.00
2012,07,07,00,42,14.90
2012,07,07,00,43,14.90
2012,07,07,00,44,14.90
2012,07,07,00,45,14.80
2012,07,07,00,46,14.80
2012,07,07,00,47,14.80
2012,07,07,00,48,14.90
2012,07,07,00,49,14.90
2012,07,07,00,50,14.90
2012,07,07,00,51,14.80
2012,07,07,00,52,14.80
2012,07,07,00,53,14.80
2012,07,07,00,54,14.80
2012,07,07,00,55,14.80
2012,07,07,00,56,14.80
2012,07,07,00,57,14.70
2012,07,07,00,58,14.70
2012,07,07,00,59,14.70
2012,07,07,01,00,14.70
2012,07,07,01,01,14.70
2012,07,07,01,02,14.70
2012,07,07,01,03,14.70
2012,07,07,01,04,14.70
2012,07,07,01,05,14.70
2012,07,07,01,06,14.60
2012,07,07,01,07,14.60
2012,07,07,01,08,14.60
2012,07,07,01,09,14.60
2012,07,07,01,10,14.60
2012,07,07,01,11,14.60
2012,07,07,01,12,14.60
2012,07,07,01,13,14.60
2012,07,07,01,14,14.60
2012,07,07,01,15,14.50
2012,07,07,01,16,14.50
2012,07,07,01,17,14.50
2012,07,07,01,18,14.40
2012,07,07,01,19,14.40
2012,07,07,01,20,14.40
2012,07,07,01,21,14.40
2012,07,07,01,22,14.30
2012,07,07,01,23,14.30
2012,07,07,01,24,14.30
2012,07,07,01,25,14.30
2012,07,07,01,26,14.30
2012,07,07,01,27,14.30
2012,07,07,01,28,14.20
2012,07,07,01,29,14.20
2012,07,07,01,30,14.20
2012,07,07,01,31,14.20
2012,07,07,01,32,14.10
2012,07,07,01,33,14.10
2012,07,07,01,34,14.10
2012,07,07,01,35,14.00
2012,07,07,01,36,14.00
2012,07,07,01,37,13.90
2012,07,07,01,38,13.90
2012,07,07,01,39,13.90
2012,07,07,01,40,13.90
2012,07,07,01,41,13.90
2012,07,07,01,42,13.80
2012,07,07,01,43,13.80
2012,07,07,01,44,13.80
2012,07,07,01,45,13.80
2012,07,07,01,46,13.70
2012,07,07,01,47,13.70
2012,07,07,01,48,13.70
2012,07,07,01,49,13.70
2012,07,07,01,50,13.80
2012,07,07,01,51,13.80
2012,07,07,01,52,13.80
2012,07,07,01,53,13.80
2012,07,07,01,54,13.80
2012,07,07,01,55,13.80
2012,07,07,01,56,13.80
2012,07,07,01,57,13.80
2012,07,07,01,58,13.70
2012,07,07,01,59,13.70
2012,07,07,02,00,13.70
2012,07,07,02,01,13.70
2012,07,07,02,02,13.70
2012,07,07,02,03,13.70
2012,07,07,02,04,13.70
2012,07,07,02,05,13.70
2012,07,07,02,06,13.70
2012,07,07,02,07,13.70
2012,07,07,02,08,13.60
2012,07,07,02,09,13.60
2012,07,07,02,10,13.60
2012,07,07,02,11,13.60
2012,07,07,02,12,13.60
2012,07,07,02,13,13.60
2012,07,07,02,14,13.60
2012,07,07,02,15,13.60
2012,07,07,02,16,13.60
2012,07,07,02,17,13.60
2012,07,07,02,18,13.60
2012,07,07,02,19,13.60
2012,07,07,02,20,13.60
2012,07,07,02,21,13.60
2012,07,07,02,22,13.60
2012,07,07,02,23,13.60
2012,07,07,02,24,13.60
2012,07,07,02,25,13.60
2012,07,07,02,26,13.50
2012,07,07,02,27,13.50
2012,07,07,02,28,13.50
2012,07,07,02,29,13.50
2012,07,07,02,30,13.50
2012,07,07,02,31,13.50
2012,07,07,02,32,13.50
2012,07,07,02,33,13.40
2012,07,07,02,34,13.40
2012,07,07,02,35,13.40
2012,07,07,02,36,13.40
2012,07,07,02,37,13.40
2012,07,07,02,38,13.40
2012,07,07,02,39,13.40
2012,07,07,02,40,13.40
2012,07,07,02,41,13.30
2012,07,07,02,42,13.30
2012,07,07,02,43,13.30
2012,07,07,02,44,13.30
2012,07,07,02,45,13.30
2012,07,07,02,46,13.30
2012,07,07,02,47,13.30
2012,07,07,02,48,13.30
2012,07,07,02,49,13.30
2012,07,07,02,50,13.30
2012,07,07,02,51,13.30
2012,07,07,02,52,13.30
2012,07,07,02,53,13.30
2012,07,07,02,54,13.30
2012,07,07,02,55,13.30
2012,07,07,02,56,13.30
2012,07,07,02,57,13.30
2012,07,07,02,58,13.30
2012,07,07,02,59,13.30
2012,07,07,03,00,13.30
2012,07,07,03,01,13.30
2012,07,07,03,02,13.30
2012,07,07,03,03,13.30
2012,07,07,03,04,13.30
2012,07,07,03,05,13.30
2012,07,07,03,06,13.30
2012,07,07,03,07,13.30
2012,07,07,03,08,13.30
2012,07,07,03,09,13.30
2012,07,07,03,10,13.30
2012,07,07,03,11,13.30
2012,07,07,03,12,13.30
2012,07,07,03,13,13.30
2012,07,07,03,14,13.30
2012,07,07,03,15,13.30
2012,07,07,03,16,13.30
2012,07,07,03,17,13.30
2012,07,07,03,18,13.20
2012,07,07,03,19,13.20
2012,07,07,03,20,13.20
2012,07,07,03,21,13.20
2012,07,07,03,22,13.20
2012,07,07,03,23,13.20
2012,07,07,03,24,13.20
2012,07,07,03,25,13.10
2012,07,07,03,26,13.10
2012,07,07,03,27,13.10
2012,07,07,03,28,13.10
2012,07,07,03,29,13.10
2012,07,07,03,30,13.00
2012,07,07,03,31,13.00
2012,07,07,03,32,13.00
2012,07,07,03,33,13.00
2012,07,07,03,34,12.90
2012,07,07,03,35,12.90
2012,07,07,03,36,12.90
2012,07,07,03,37,12.90
2012,07,07,03,38,12.90
2012,07,07,03,39,12.90
2012,07,07,03,40,12.90
2012,07,07,03,41,12.90
2012,07,07,03,42,12.90
2012,07,07,03,43,12.90
2012,07,07,03,44,12.90
2012,07,07,03,45,12.80
2012,07,07,03,46,12.80
2012,07,07,03,47,12.80
2012,07,07,03,48,12.80
2012,07,07,03,49,12.80
2012,07,07,03,50,12.80
2012,07,07,03,51,12.80
2012,07,07,03,52,12.80
2012,07,07,03,53,12.80
2012,07,07,03,54,12.80
2012,07,07,03,55,12.80
2012,07,07,03,56,12.80
2012,07,07,03,57,12.70
2012,07,07,03,58,12.70
2012,07,07,03,59,12.70
2012,07,07,04,00,12.70
2012,07,07,04,01,12.70
2012,07,07,04,02,12.70
2012,07,07,04,03,12.70
2012,07,07,04,04,12.60
2012,07,07,04,05,12.60
2012,07,07,04,06,12.60
2012,07,07,04,07,12.60
2012,07,07,04,08,12.60
2012,07,07,04,09,12.50
2012,07,07,04,10,12.50
2012,07,07,04,11,12.50
2012,07,07,04,12,12.50
2012,07,07,04,13,12.50
2012,07,07,04,14,12.50
2012,07,07,04,15,12.40
2012,07,07,04,16,12.40
2012,07,07,04,17,12.40
2012,07,07,04,18,12.40
2012,07,07,04,19,12.40
2012,07,07,04,20,12.40
2012,07,07,04,21,12.40
2012,07,07,04,22,12.30
2012,07,07,04,23,12.30
2012,07,07,04,24,12.30
2012,07,07,04,25,12.30
2012,07,07,04,26,12.30
2012,07,07,04,27,12.30
2012,07,07,04,28,12.30
2012,07,07,04,29,12.30
2012,07,07,04,30,12.30
2012,07,07,04,31,12.30
2012,07,07,04,32,12.30
2012,07,07,04,33,12.30
2012,07,07,04,34,12.30
2012,07,07,04,35,12.30
2012,07,07,04,36,12.20
2012,07,07,04,37,12.20
2012,07,07,04,38,12.20
2012,07,07,04,39,12.20
2012,07,07,04,40,12.20
2012,07,07,04,41,12.20
2012,07,07,04,42,12.20
2012,07,07,04,43,12.20
2012,07,07,04,44,12.10
2012,07,07,04,45,12.10
2012,07,07,04,46,12.10
2012,07,07,04,47,12.10
2012,07,07,04,48,12.10
2012,07,07,04,49,12.10
2012,07,07,04,50,12.00
2012,07,07,04,51,12.00
2012,07,07,04,52,12.00
2012,07,07,04,53,12.00
2012,07,07,04,54,12.00
2012,07,07,04,55,11.90
2012,07,07,04,56,11.90
2012,07,07,04,57,11.90
2012,07,07,04,58,11.90
2012,07,07,04,59,11.90
2012,07,07,05,00,11.90
2012,07,07,05,01,11.90
2012,07,07,05,02,11.80
2012,07,07,05,03,11.80
2012,07,07,05,04,11.80
2012,07,07,05,05,11.80
2012,07,07,05,06,11.80
2012,07,07,05,07,11.80
2012,07,07,05,08,11.80
2012,07,07,05,09,11.80
2012,07,07,05,10,11.80
2012,07,07,05,11,11.80
2012,07,07,05,12,11.80
2012,07,07,05,13,11.80
2012,07,07,05,14,11.80
2012,07,07,05,15,11.80
2012,07,07,05,16,11.80
2012,07,07,05,17,11.80
2012,07,07,05,18,11.80
2012,07,07,05,19,11.70
2012,07,07,05,20,11.70
2012,07,07,05,21,11.70
2012,07,07,05,22,11.70
2012,07,07,05,23,11.70
2012,07,07,05,24,11.70
2012,07,07,05,25,11.70
2012,07,07,05,26,11.70
2012,07,07,05,27,11.70
2012,07,07,05,28,11.70
2012,07,07,05,29,11.70
2012,07,07,05,30,11.70
2012,07,07,05,31,11.70
2012,07,07,05,32,11.70
2012,07,07,05,33,11.70
2012,07,07,05,34,11.70
2012,07,07,05,35,11.70
2012,07,07,05,36,11.70
2012,07,07,05,37,11.70
2012,07,07,05,38,11.70
2012,07,07,05,39,11.70
2012,07,07,05,40,11.70
2012,07,07,05,41,11.70
2012,07,07,05,42,11.70
2012,07,07,05,43,11.70
2012,07,07,05,44,11.70
2012,07,07,05,45,11.60
2012,07,07,05,46,11.60
2012,07,07,05,47,11.60
2012,07,07,05,48,11.60
2012,07,07,05,49,11.60
2012,07,07,05,50,11.60
2012,07,07,05,51,11.60
2012,07,07,05,52,11.60
2012,07,07,05,53,11.60
2012,07,07,05,54,11.60
2012,07,07,05,55,11.60
2012,07,07,05,56,11.60
2012,07,07,05,57,11.60
2012,07,07,05,58,11.60
2012,07,07,05,59,11.70
2012,07,07,06,00,11.70
2012,07,07,06,01,11.70
2012,07,07,06,02,11.70
2012,07,07,06,03,11.70
2012,07,07,06,04,11.80
2012,07,07,06,05,11.80
2012,07,07,06,06,11.80
2012,07,07,06,07,11.80
2012,07,07,06,08,11.90
2012,07,07,06,09,12.00
2012,07,07,06,10,12.10
2012,07,07,06,11,12.20
2012,07,07,06,12,12.20
2012,07,07,06,13,12.30
2012,07,07,06,14,12.40
2012,07,07,06,15,12.50
2012,07,07,06,16,12.50
2012,07,07,06,17,12.60
2012,07,07,06,18,12.70
2012,07,07,06,19,12.70
2012,07,07,06,20,12.80
2012,07,07,06,21,12.80
2012,07,07,06,22,12.90
2012,07,07,06,23,13.00
2012,07,07,06,24,13.00
2012,07,07,06,25,13.10
2012,07,07,06,26,13.20
2012,07,07,06,27,13.20
2012,07,07,06,28,13.30
2012,07,07,06,29,13.40
2012,07,07,06,30,13.50
2012,07,07,06,31,13.60
2012,07,07,06,32,13.60
2012,07,07,06,33,13.70
2012,07,07,06,34,13.80
2012,07,07,06,35,13.90
2012,07,07,06,36,13.90
2012,07,07,06,37,14.00
2012,07,07,06,38,14.00
2012,07,07,06,39,14.10
2012,07,07,06,40,14.10
2012,07,07,06,41,14.10
2012,07,07,06,42,14.20
2012,07,07,06,43,14.20
2012,07,07,06,44,14.30
2012,07,07,06,45,14.30
2012,07,07,06,46,14.40
2012,07,07,06,47,14.40
2012,07,07,06,48,14.50
2012,07,07,06,49,14.50
2012,07,07,06,50,14.60
2012,07,07,06,51,14.60
2012,07,07,06,52,14.70
2012,07,07,06,53,14.70
2012,07,07,06,54,14.80
2012,07,07,06,55,14.80
2012,07,07,06,56,14.80
2012,07,07,06,57,14.90
2012,07,07,06,58,14.90
2012,07,07,06,59,15.00
2012,07,07,07,00,15.00
2012,07,07,07,01,15.00
2012,07,07,07,02,15.00
2012,07,07,07,03,15.00
2012,07,07,07,04,15.00
2012,07,07,07,05,15.10
2012,07,07,07,06,15.20
2012,07,07,07,07,15.20
2012,07,07,07,08,15.30
2012,07,07,07,09,15.30
2012,07,07,07,10,15.30
2012,07,07,07,11,15.40
2012,07,07,07,12,15.40
2012,07,07,07,13,15.50
2012,07,07,07,14,15.50
2012,07,07,07,15,15.60
2012,07,07,07,16,15.60
2012,07,07,07,17,15.60
2012,07,07,07,18,15.70
2012,07,07,07,19,15.70
2012,07,07,07,20,15.80
2012,07,07,07,21,15.80
2012,07,07,07,22,15.80
2012,07,07,07,23,15.90
2012,07,07,07,24,15.90
2012,07,07,07,25,15.90
2012,07,07,07,26,16.00
2012,07,07,07,27,16.00
2012,07,07,07,28,16.10
2012,07,07,07,29,16.10
2012,07,07,07,30,16.20
2012,07,07,07,31,16.20
2012,07,07,07,32,16.20
2012,07,07,07,33,16.30
2012,07,07,07,34,16.30
2012,07,07,07,35,16.30
2012,07,07,07,36,16.40
2012,07,07,07,37,16.40
2012,07,07,07,38,16.40
2012,07,07,07,39,16.50
2012,07,07,07,40,16.50
2012,07,07,07,41,16.50
2012,07,07,07,42,16.60
2012,07,07,07,43,16.60
2012,07,07,07,44,16.60
2012,07,07,07,45,16.60
2012,07,07,07,46,16.60
2012,07,07,07,47,16.60
2012,07,07,07,48,16.60
2012,07,07,07,49,16.60
2012,07,07,07,50,16.60
2012,07,07,07,51,16.60
2012,07,07,07,52,16.60
2012,07,07,07,53,16.70
2012,07,07,07,54,16.70
2012,07,07,07,55,16.70
2012,07,07,07,56,16.70
2012,07,07,07,57,16.70
2012,07,07,07,58,16.70
2012,07,07,07,59,16.70
2012,07,07,08,00,16.70
2012,07,07,08,01,16.70
2012,07,07,08,02,16.70
2012,07,07,08,03,16.70
2012,07,07,08,04,16.70
2012,07,07,08,05,16.80
2012,07,07,08,06,16.80
2012,07,07,08,07,16.80
2012,07,07,08,08,16.80
2012,07,07,08,09,16.80
2012,07,07,08,10,16.80
2012,07,07,08,11,16.80
2012,07,07,08,12,16.80
2012,07,07,08,13,16.80
2012,07,07,08,14,16.80
2012,07,07,08,15,16.80
2012,07,07,08,16,16.80
2012,07,07,08,17,16.90
2012,07,07,08,18,16.90
2012,07,07,08,19,16.90
2012,07,07,08,20,16.90
2012,07,07,08,21,16.90
2012,07,07,08,22,16.90
2012,07,07,08,23,17.00
2012,07,07,08,24,17.00
2012,07,07,08,25,17.00
2012,07,07,08,26,17.00
2012,07,07,08,27,17.00
2012,07,07,08,28,17.10
2012,07,07,08,29,17.10
2012,07,07,08,30,17.10
2012,07,07,08,31,17.20
2012,07,07,08,32,17.20
2012,07,07,08,33,17.20
2012,07,07,08,34,17.30
2012,07,07,08,35,17.30
2012,07,07,08,36,17.30
2012,07,07,08,37,17.30
2012,07,07,08,38,17.40
2012,07,07,08,39,17.40
2012,07,07,08,40,17.40
2012,07,07,08,41,17.40
2012,07,07,08,42,17.40
2012,07,07,08,43,17.50
2012,07,07,08,44,17.50
2012,07,07,08,45,17.60
2012,07,07,08,46,17.60
2012,07,07,08,47,17.70
2012,07,07,08,48,17.80
2012,07,07,08,49,17.80
2012,07,07,08,50,17.80
2012,07,07,08,51,17.80
2012,07,07,08,52,17.80
2012,07,07,08,53,17.70
2012,07,07,08,54,17.70
2012,07,07,08,55,17.70
2012,07,07,08,56,17.70
2012,07,07,08,57,17.70
2012,07,07,08,58,17.70
2012,07,07,08,59,17.80
2012,07,07,09,00,17.80
2012,07,07,09,01,17.80
2012,07,07,09,02,17.80
2012,07,07,09,03,17.80
2012,07,07,09,04,17.80
2012,07,07,09,05,17.80
2012,07,07,09,06,17.80
2012,07,07,09,07,17.80
2012,07,07,09,08,17.90
2012,07,07,09,09,17.90
2012,07,07,09,10,17.90
2012,07,07,09,11,17.90
2012,07,07,09,12,17.90
2012,07,07,09,13,17.90
2012,07,07,09,14,17.90
2012,07,07,09,15,17.90
2012,07,07,09,16,17.90
2012,07,07,09,17,17.90
2012,07,07,09,18,17.90
2012,07,07,09,19,18.00
2012,07,07,09,20,18.00
2012,07,07,09,21,18.00
2012,07,07,09,22,18.00
2012,07,07,09,23,18.00
2012,07,07,09,24,18.00
2012,07,07,09,25,18.00
2012,07,07,09,26,18.10
2012,07,07,09,27,18.10
2012,07,07,09,28,18.10
2012,07,07,09,29,18.10
2012,07,07,09,30,18.20
2012,07,07,09,31,18.20
2012,07,07,09,32,18.30
2012,07,07,09,33,18.30
2012,07,07,09,34,18.30
2012,07,07,09,35,18.30
2012,07,07,09,36,18.30
2012,07,07,09,37,18.30
2012,07,07,09,38,18.30
2012,07,07,09,39,18.30
2012,07,07,09,40,18.30
2012,07,07,09,41,18.30
2012,07,07,09,42,18.30
2012,07,07,09,43,18.30
2012,07,07,09,44,18.30
2012,07,07,09,45,18.30
2012,07,07,09,46,18.30
2012,07,07,09,47,18.20
2012,07,07,09,48,18.20
2012,07,07,09,49,18.20
2012,07,07,09,50,18.10
2012,07,07,09,51,18.20
2012,07,07,09,52,18.20
2012,07,07,09,53,18.20
2012,07,07,09,54,18.20
2012,07,07,09,55,18.30
2012,07,07,09,56,18.30
2012,07,07,09,57,18.30
2012,07,07,09,58,18.30
2012,07,07,09,59,18.30
2012,07,07,10,00,18.30
2012,07,07,10,01,18.30
2012,07,07,10,02,18.30
2012,07,07,10,03,18.20
2012,07,07,10,04,18.30
2012,07,07,10,05,18.30
2012,07,07,10,06,18.30
2012,07,07,10,07,18.20
2012,07,07,10,08,18.20
2012,07,07,10,09,18.20
2012,07,07,10,10,18.20
2012,07,07,10,11,18.20
2012,07,07,10,12,18.20
2012,07,07,10,13,18.20
2012,07,07,10,14,18.20
2012,07,07,10,15,18.20
2012,07,07,10,16,18.30
2012,07,07,10,17,18.30
2012,07,07,10,18,18.30
2012,07,07,10,19,18.30
2012,07,07,10,20,18.40
2012,07,07,10,21,18.40
2012,07,07,10,22,18.40
2012,07,07,10,23,18.30
2012,07,07,10,24,18.30
2012,07,07,10,25,18.30
2012,07,07,10,26,18.40
2012,07,07,10,27,18.40
2012,07,07,10,28,18.40
2012,07,07,10,29,18.40
2012,07,07,10,30,18.30
2012,07,07,10,31,18.30
2012,07,07,10,32,18.40
2012,07,07,10,33,18.40
2012,07,07,10,34,18.40
2012,07,07,10,35,18.40
2012,07,07,10,36,18.40
2012,07,07,10,37,18.40
2012,07,07,10,38,18.50
2012,07,07,10,39,18.50
2012,07,07,10,40,18.50
2012,07,07,10,41,18.50
2012,07,07,10,42,18.40
2012,07,07,10,43,18.40
2012,07,07,10,44,18.30
2012,07,07,10,45,18.30
2012,07,07,10,46,18.20
2012,07,07,10,47,18.20
2012,07,07,10,48,18.20
2012,07,07,10,49,18.10
2012,07,07,10,50,18.20
2012,07,07,10,51,18.20
2012,07,07,10,52,18.20
2012,07,07,10,53,18.20
2012,07,07,10,54,18.20
2012,07,07,10,55,18.20
2012,07,07,10,56,18.20
2012,07,07,10,57,18.10
2012,07,07,10,58,18.10
2012,07,07,10,59,18.20
2012,07,07,11,00,18.20
2012,07,07,11,01,18.20
2012,07,07,11,02,18.30
2012,07,07,11,03,18.30
2012,07,07,11,04,18.30
2012,07,07,11,05,18.30
2012,07,07,11,06,18.30
2012,07,07,11,07,18.30
2012,07,07,11,08,18.40
2012,07,07,11,09,18.40
2012,07,07,11,10,18.40
2012,07,07,11,11,18.50
2012,07,07,11,12,18.50
2012,07,07,11,13,18.50
2012,07,07,11,14,18.50
2012,07,07,11,15,18.60
2012,07,07,11,16,18.60
2012,07,07,11,17,18.60
2012,07,07,11,18,18.60
2012,07,07,11,19,18.60
2012,07,07,11,20,18.60
2012,07,07,11,21,18.60
2012,07,07,11,22,18.70
2012,07,07,11,23,18.70
2012,07,07,11,24,18.70
2012,07,07,11,25,18.80
2012,07,07,11,26,18.80
2012,07,07,11,27,18.90
2012,07,07,11,28,18.90
2012,07,07,11,29,19.00
2012,07,07,11,30,19.00
2012,07,07,11,31,19.10
2012,07,07,11,32,19.10
2012,07,07,11,33,19.10
2012,07,07,11,34,19.10
2012,07,07,11,35,19.10
2012,07,07,11,36,19.10
2012,07,07,11,37,19.00
2012,07,07,11,38,19.10
2012,07,07,11,39,19.10
2012,07,07,11,40,19.10
2012,07,07,11,41,19.10
2012,07,07,11,42,19.10
2012,07,07,11,43,19.10
2012,07,07,11,44,19.10
2012,07,07,11,45,19.20
2012,07,07,11,46,19.20
2012,07,07,11,47,19.20
2012,07,07,11,48,19.20
2012,07,07,11,49,19.20
2012,07,07,11,50,19.20
2012,07,07,11,51,19.20
2012,07,07,11,52,19.20
2012,07,07,11,53,19.20
2012,07,07,11,54,19.20
2012,07,07,11,55,19.20
2012,07,07,11,56,19.20
2012,07,07,11,57,19.20
2012,07,07,11,58,19.20
2012,07,07,11,59,19.20
2012,07,07,12,00,19.20
2012,07,07,12,01,19.30
2012,07,07,12,02,19.30
2012,07,07,12,03,19.40
2012,07,07,12,04,19.40
2012,07,07,12,05,19.50
2012,07,07,12,06,19.60
2012,07,07,12,07,19.60
2012,07,07,12,08,19.70
2012,07,07,12,09,19.80
2012,07,07,12,10,19.80
2012,07,07,12,11,19.90
2012,07,07,12,12,19.90
2012,07,07,12,13,19.90
2012,07,07,12,14,19.90
2012,07,07,12,15,20.00
2012,07,07,12,16,20.00
2012,07,07,12,17,20.00
2012,07,07,12,18,20.10
2012,07,07,12,19,20.10
2012,07,07,12,20,20.20
2012,07,07,12,21,20.20
2012,07,07,12,22,20.20
2012,07,07,12,23,20.20
2012,07,07,12,24,20.20
2012,07,07,12,25,20.30
2012,07,07,12,26,20.30
2012,07,07,12,27,20.40
2012,07,07,12,28,20.40
2012,07,07,12,29,20.40
2012,07,07,12,30,20.40
2012,07,07,12,31,20.40
2012,07,07,12,32,20.50
2012,07,07,12,33,20.60
2012,07,07,12,34,20.60
2012,07,07,12,35,20.60
2012,07,07,12,36,20.60
2012,07,07,12,37,20.60
2012,07,07,12,38,20.60
2012,07,07,12,39,20.60
2012,07,07,12,40,20.50
2012,07,07,12,41,20.50
2012,07,07,12,42,20.40
2012,07,07,12,43,20.40
2012,07,07,12,44,20.30
2012,07,07,12,45,20.30
2012,07,07,12,46,20.30
2012,07,07,12,47,20.30
2012,07,07,12,48,20.30
2012,07,07,12,49,20.40
2012,07,07,12,50,20.40
2012,07,07,12,51,20.50
2012,07,07,12,52,20.40
2012,07,07,12,53,20.40
2012,07,07,12,54,20.40
2012,07,07,12,55,20.40
2012,07,07,12,56,20.30
2012,07,07,12,57,20.30
2012,07,07,12,58,20.30
2012,07,07,12,59,20.30
2012,07,07,13,00,20.40
2012,07,07,13,01,20.40
2012,07,07,13,02,20.30
2012,07,07,13,03,20.30
2012,07,07,13,04,20.40
2012,07,07,13,05,20.40
2012,07,07,13,06,20.40
2012,07,07,13,07,20.40
2012,07,07,13,08,20.30
2012,07,07,13,09,20.30
2012,07,07,13,10,20.30
2012,07,07,13,11,20.30
2012,07,07,13,12,20.40
2012,07,07,13,13,20.40
2012,07,07,13,14,20.40
2012,07,07,13,15,20.40
2012,07,07,13,16,20.40
2012,07,07,13,17,20.40
2012,07,07,13,18,20.40
2012,07,07,13,19,20.30
2012,07,07,13,20,20.30
2012,07,07,13,21,20.30
2012,07,07,13,22,20.30
2012,07,07,13,23,20.30
2012,07,07,13,24,20.30
2012,07,07,13,25,20.30
2012,07,07,13,26,20.40
2012,07,07,13,27,20.40
2012,07,07,13,28,20.40
2012,07,07,13,29,20.50
2012,07,07,13,30,20.50
2012,07,07,13,31,20.60
2012,07,07,13,32,20.50
2012,07,07,13,33,20.60
2012,07,07,13,34,20.60
2012,07,07,13,35,20.60
2012,07,07,13,36,20.60
2012,07,07,13,37,20.70
2012,07,07,13,38,20.70
2012,07,07,13,39,20.70
2012,07,07,13,40,20.80
2012,07,07,13,41,20.80
2012,07,07,13,42,20.90
2012,07,07,13,43,20.90
2012,07,07,13,44,20.90
2012,07,07,13,45,20.90
2012,07,07,13,46,21.00
2012,07,07,13,47,21.00
2012,07,07,13,48,21.00
2012,07,07,13,49,21.10
2012,07,07,13,50,21.10
2012,07,07,13,51,21.10
2012,07,07,13,52,21.20
2012,07,07,13,53,21.20
2012,07,07,13,54,21.30
2012,07,07,13,55,21.30
2012,07,07,13,56,21.40
2012,07,07,13,57,21.50
2012,07,07,13,58,21.50
2012,07,07,13,59,21.50
2012,07,07,14,00,21.40
2012,07,07,14,01,21.40
2012,07,07,14,02,21.40
2012,07,07,14,03,21.40
2012,07,07,14,04,21.40
2012,07,07,14,05,21.40
2012,07,07,14,06,21.50
2012,07,07,14,07,21.60
2012,07,07,14,08,21.60
2012,07,07,14,09,21.60
2012,07,07,14,10,21.70
2012,07,07,14,11,21.70
2012,07,07,14,12,21.70
2012,07,07,14,13,21.70
2012,07,07,14,14,21.70
2012,07,07,14,15,21.70
2012,07,07,14,16,21.70
2012,07,07,14,17,21.70
2012,07,07,14,18,21.70
2012,07,07,14,19,21.70
2012,07,07,14,20,21.80
2012,07,07,14,21,21.70
2012,07,07,14,22,21.70
2012,07,07,14,23,21.60
2012,07,07,14,24,21.60
2012,07,07,14,25,21.70
2012,07,07,14,26,21.70
2012,07,07,14,27,21.80
2012,07,07,14,28,21.80
2012,07,07,14,29,21.80
2012,07,07,14,30,21.80
2012,07,07,14,31,21.80
2012,07,07,14,32,21.80
2012,07,07,14,33,21.80
2012,07,07,14,34,21.80
2012,07,07,14,35,21.90
2012,07,07,14,36,21.90
2012,07,07,14,37,21.90
2012,07,07,14,38,22.00
2012,07,07,14,39,22.00
2012,07,07,14,40,22.00
2012,07,07,14,41,22.00
2012,07,07,14,42,22.10
2012,07,07,14,43,22.10
2012,07,07,14,44,22.10
2012,07,07,14,45,22.20
2012,07,07,14,46,22.20
2012,07,07,14,47,22.30
2012,07,07,14,48,22.30
2012,07,07,14,49,22.40
2012,07,07,14,50,22.50
2012,07,07,14,51,22.50
2012,07,07,14,52,22.60
2012,07,07,14,53,22.60
2012,07,07,14,54,22.60
2012,07,07,14,55,22.60
2012,07,07,14,56,22.60
2012,07,07,14,57,22.60
2012,07,07,14,58,22.60
2012,07,07,14,59,22.70
2012,07,07,15,00,22.70
2012,07,07,15,01,22.70
2012,07,07,15,02,22.70
2012,07,07,15,03,22.70
2012,07,07,15,04,22.70
2012,07,07,15,05,22.70
2012,07,07,15,06,22.70
2012,07,07,15,07,22.60
2012,07,07,15,08,22.50
2012,07,07,15,09,22.50
2012,07,07,15,10,22.40
2012,07,07,15,11,22.30
2012,07,07,15,12,22.30
2012,07,07,15,13,22.30
2012,07,07,15,14,22.30
2012,07,07,15,15,22.30
2012,07,07,15,16,22.30
2012,07,07,15,17,22.30
2012,07,07,15,18,22.30
2012,07,07,15,19,22.30
2012,07,07,15,20,22.40
2012,07,07,15,21,22.50
2012,07,07,15,22,22.60
2012,07,07,15,23,22.70
2012,07,07,15,24,22.80
2012,07,07,15,25,22.90
2012,07,07,15,26,23.00
2012,07,07,15,27,23.00
2012,07,07,15,28,23.10
2012,07,07,15,29,23.10
2012,07,07,15,30,23.20
2012,07,07,15,31,23.20
2012,07,07,15,32,23.20
2012,07,07,15,33,23.20
2012,07,07,15,34,23.10
2012,07,07,15,35,23.10
2012,07,07,15,36,23.10
2012,07,07,15,37,23.10
2012,07,07,15,38,23.00
2012,07,07,15,39,23.00
2012,07,07,15,40,22.90
2012,07,07,15,41,22.90
2012,07,07,15,42,22.90
2012,07,07,15,43,22.90
2012,07,07,15,44,22.90
2012,07,07,15,45,23.00
2012,07,07,15,46,23.00
2012,07,07,15,47,23.00
2012,07,07,15,48,23.00
2012,07,07,15,49,23.10
2012,07,07,15,50,23.10
2012,07,07,15,51,23.10
2012,07,07,15,52,23.20
2012,07,07,15,53,23.20
2012,07,07,15,54,23.20
2012,07,07,15,55,23.20
2012,07,07,15,56,23.30
2012,07,07,15,57,23.30
2012,07,07,15,58,23.40
2012,07,07,15,59,23.50
2012,07,07,16,00,23.50
2012,07,07,16,01,23.50
2012,07,07,16,02,23.50
2012,07,07,16,03,23.60
2012,07,07,16,04,23.60
2012,07,07,16,05,23.60
2012,07,07,16,06,23.60
2012,07,07,16,07,23.60
2012,07,07,16,08,23.60
2012,07,07,16,09,23.50
2012,07,07,16,10,23.40
2012,07,07,16,11,23.40
2012,07,07,16,12,23.30
2012,07,07,16,13,23.30
2012,07,07,16,14,23.30
2012,07,07,16,15,23.30
2012,07,07,16,16,23.30
2012,07,07,16,17,23.30
2012,07,07,16,18,23.30
2012,07,07,16,19,23.30
2012,07,07,16,20,23.30
2012,07,07,16,21,23.30
2012,07,07,16,22,23.30
2012,07,07,16,23,23.30
2012,07,07,16,24,23.30
2012,07,07,16,25,23.30
2012,07,07,16,26,23.30
2012,07,07,16,27,23.40
2012,07,07,16,28,23.40
2012,07,07,16,29,23.40
2012,07,07,16,30,23.50
2012,07,07,16,31,23.50
2012,07,07,16,32,23.60
2012,07,07,16,33,23.70
2012,07,07,16,34,23.80
2012,07,07,16,35,23.80
2012,07,07,16,36,23.90
2012,07,07,16,37,24.00
2012,07,07,16,38,24.10
2012,07,07,16,39,24.10
2012,07,07,16,40,24.20
2012,07,07,16,41,24.30
2012,07,07,16,42,24.30
2012,07,07,16,43,24.40
2012,07,07,16,44,24.40
2012,07,07,16,45,24.50
2012,07,07,16,46,24.50
2012,07,07,16,47,24.50
2012,07,07,16,48,24.60
2012,07,07,16,49,24.60
2012,07,07,16,50,24.70
2012,07,07,16,51,24.80
2012,07,07,16,52,24.80
2012,07,07,16,53,24.90
2012,07,07,16,54,24.90
2012,07,07,16,55,25.00
2012,07,07,16,56,25.00
2012,07,07,16,57,25.00
2012,07,07,16,58,25.10
2012,07,07,16,59,25.10
2012,07,07,17,00,25.00
2012,07,07,17,01,25.00
2012,07,07,17,02,25.00
2012,07,07,17,03,24.90
2012,07,07,17,04,24.90
2012,07,07,17,05,24.80
2012,07,07,17,06,24.80
2012,07,07,17,07,24.70
2012,07,07,17,08,24.70
2012,07,07,17,09,24.70
2012,07,07,17,10,24.80
2012,07,07,17,11,24.80
2012,07,07,17,12,24.80
2012,07,07,17,13,24.80
2012,07,07,17,14,24.90
2012,07,07,17,15,24.90
2012,07,07,17,16,24.90
2012,07,07,17,17,24.90
2012,07,07,17,18,25.00
2012,07,07,17,19,25.00